Location: Ch�tillon
(48.8024°N, 2.2935°E)
Time: 19:12:31
(UTC+00:00)

RS-15 - Pass Details

Date: 05 July 2022
Orbit: 1881 x 2163 km, 64.8° (Epoch: 11 August)

Event Time Altitude Azimuth Distance (km) Brightness Sun altitude
Rises 01:44:11 0° 316° (NW) 5,693 10.8 -14.4°
Reaches altitude 10° 01:50:21 10° 294° (WNW) 4,660 10.0 -13.9°
Maximum altitude 01:55:15 13° 270° (W) 4,337 9.6 -13.6°
Drops below altitude 10° 02:00:06 10° 245° (WSW) 4,581 9.5 -13.2°
Enters shadow 02:01:19 - 239° (WSW) 4,722 9.5 -13.1°
